TimeCST,TemperatureF,Dew PointF,Humidity,Sea Level PressureIn,VisibilityMPH,Wind Direction,Wind SpeedMPH,Gust SpeedMPH,PrecipitationIn,Events,Conditions,WindDirDegrees,DateUTC
12:53 AM,39.9,36.0,86,30.13,10.0,WNW,4.6,-,N/A,,Clear,300,2012-11-08 06:53:00
1:53 AM,39.0,36.0,89,30.14,10.0,NW,5.8,-,N/A,,Clear,310,2012-11-08 07:53:00
2:53 AM,39.0,36.0,89,30.15,10.0,NW,4.6,-,N/A,,Clear,320,2012-11-08 08:53:00
3:53 AM,39.0,36.0,89,30.16,9.0,NW,3.5,-,N/A,,Clear,310,2012-11-08 09:53:00
4:53 AM,37.9,36.0,93,30.18,7.0,Calm,Calm,-,N/A,,Clear,0,2012-11-08 10:53:00
5:17 AM,33.8,32.0,93,30.19,1.5,Calm,Calm,-,N/A,,Clear,0,2012-11-08 11:17:00
5:21 AM,33.8,32.0,93,30.19,0.8,Calm,Calm,-,N/A,,Clear,0,2012-11-08 11:21:00
5:34 AM,33.8,33.8,100,30.19,1.2,Calm,Calm,-,N/A,,Clear,0,2012-11-08 11:34:00
5:49 AM,33.8,33.8,100,30.19,0.8,SW,3.5,-,N/A,,Clear,220,2012-11-08 11:49:00
5:53 AM,34.0,33.1,96,30.20,1.2,SW,4.6,-,N/A,,Clear,220,2012-11-08 11:53:00
5:58 AM,33.8,33.8,100,30.20,1.0,SW,4.6,-,N/A,,Mist,230,2012-11-08 11:58:00
6:06 AM,35.6,33.8,93,30.20,0.8,SW,4.6,-,N/A,,Mist,220,2012-11-08 12:06:00
6:13 AM,33.8,33.8,100,30.20,1.2,SW,3.5,-,N/A,,Clear,220,2012-11-08 12:13:00
6:53 AM,37.9,36.0,93,30.22,1.2,Calm,Calm,-,N/A,,Clear,0,2012-11-08 12:53:00
7:00 AM,37.4,35.6,93,30.22,3.0,Calm,Calm,-,N/A,,Clear,0,2012-11-08 13:00:00
7:53 AM,46.0,41.0,83,30.24,9.0,Calm,Calm,-,N/A,,Clear,0,2012-11-08 13:53:00
8:53 AM,52.0,42.1,69,30.25,10.0,North,6.9,-,N/A,,Clear,10,2012-11-08 14:53:00
9:53 AM,57.0,41.0,55,30.25,10.0,Variable,4.6,-,N/A,,Clear,0,2012-11-08 15:53:00
10:53 AM,60.8,39.2,45,30.24,10.0,NW,9.2,-,N/A,,Clear,320,2012-11-08 16:53:00
11:53 AM,62.1,39.0,43,30.20,10.0,NW,8.1,-,N/A,,Clear,310,2012-11-08 17:53:00
12:53 PM,63.0,37.9,40,30.18,10.0,NW,8.1,-,N/A,,Clear,320,2012-11-08 18:53:00
1:53 PM,64.9,37.0,36,30.17,10.0,NNW,9.2,-,N/A,,Clear,340,2012-11-08 19:53:00
2:53 PM,64.9,37.0,36,30.17,10.0,North,4.6,-,N/A,,Clear,360,2012-11-08 20:53:00
3:53 PM,64.0,37.0,37,30.17,10.0,NNW,4.6,-,N/A,,Clear,330,2012-11-08 21:53:00
4:53 PM,57.9,37.9,47,30.18,10.0,West,5.8,-,N/A,,Clear,280,2012-11-08 22:53:00
5:53 PM,54.0,39.0,57,30.19,10.0,NNW,3.5,-,N/A,,Clear,330,2012-11-08 23:53:00
6:53 PM,50.0,39.0,66,30.21,10.0,Calm,Calm,-,N/A,,Clear,0,2012-11-09 00:53:00
7:53 PM,45.0,39.0,80,30.21,10.0,Calm,Calm,-,N/A,,Clear,0,2012-11-09 01:53:00
8:53 PM,42.1,37.9,85,30.22,10.0,Calm,Calm,-,N/A,,Clear,0,2012-11-09 02:53:00
9:53 PM,42.1,37.9,85,30.22,10.0,Calm,Calm,-,N/A,,Clear,0,2012-11-09 03:53:00
10:53 PM,39.9,37.0,89,30.22,10.0,Calm,Calm,-,N/A,,Clear,0,2012-11-09 04:53:00
11:53 PM,37.9,35.1,89,30.23,7.0,Calm,Calm,-,N/A,,Clear,0,2012-11-09 05:53:00